Valdosta Regional, GA

8:52 AM EDT on July 24, 2017 (GMT -0400)
Valdosta Regional

Weather History for KVLD - February, 2014

Change the Weather History Date:

Thursday, February 20, 2014

  Actual Average Record
Temperature  
Mean Temperature 69 °F 55 °F  
Max Temperature 85 °F 68 °F 85 °F (2014)
Min Temperature 52 °F 43 °F 23 °F (2015)
Degree Days  
Heating Degree Days 0 10  
Month to date heating degree days 146 237  
Since 1 July heating degree days 1002 1306  
Cooling Degree Days 2    
Growing Degree Days 18 (Base 50)    
Moisture  
Dew Point 53 °F    
Average Humidity 62    
Maximum Humidity 90    
Minimum Humidity 34    
Precipitation  
Precipitation 0.00 in 0.19 in 0.00 in (2017)
Month to date precipitation 2.38  
Year to date precipitation 6.95  
Sea Level Pressure  
Sea Level Pressure 30.12 in    
Wind  
Wind Speed 4 mph (South)    
Max Wind Speed 18 mph    
Max Gust Speed 23 mph    
Visibility 4 miles    
Events Fog    
T = Trace of Precipitation, MM = Missing Value Source: NWS Daily Summary

Daily Weather History Graph

Daily Weather History Graph

Search for Another Location

Airport or City:

Trip Planner

Search our weather history database for the weather conditions in past years. The results will help you decide how hot, cold, wet, or windy it might be!

Date:

Astronomy

Feb. 20, 2014 Rise Set
Actual Time 7:09 AM EST 6:24 PM EST
Civil Twilight 6:44 AM EST 6:49 PM EST
Nautical Twilight 6:16 AM EST 7:17 PM EST
Astronomical Twilight 5:48 AM EST 7:45 PM EST
Moon 11:52 PM EST (2/20) 10:15 AM EST (2/20)
Length of Visible Light 12h 04m
Length of Day
11h 15m
Waning Gibbous, 71% of the Moon is Illuminated
Feb 20
Waning Gibbous
Feb 22
Last Quarter
Mar 1
New
Mar 8
First Quarter
Mar 16
Full

Hourly Weather History & Observations

Time (EST) Temp. Heat Index Dew Point Humidity Pressure Visibility Wind Dir Wind Speed Gust Speed Precip Events Conditions
12:03 AM 57.2 °F - 51.8 °F 82% 30.11 in 1.2 mi Calm Calm - N/A   Haze
12:41 AM 55.4 °F - 51.8 °F 88% 30.11 in 2.5 mi Calm Calm - N/A   Haze
12:53 AM 55.9 °F - 50.0 °F 80% 30.13 in 3.0 mi Calm Calm - N/A   Haze
1:20 AM 53.6 °F - 50.0 °F 88% 30.10 in 1.8 mi Calm Calm - N/A   Clear
1:34 AM 55.4 °F - 50.0 °F 82% 30.11 in 0.8 mi Calm Calm - N/A   Haze
1:53 AM 55.0 °F - 50.0 °F 83% 30.13 in 0.8 mi Calm Calm - N/A   Haze
1:55 AM 53.6 °F - 48.2 °F 82% 30.11 in 1.2 mi Calm Calm - N/A   Haze
2:09 AM 53.6 °F - 48.2 °F 82% 30.11 in 3.0 mi Calm Calm - N/A   Haze
2:27 AM 55.4 °F - 48.2 °F 77% 30.11 in 2.5 mi Calm Calm - N/A   Haze
2:46 AM 55.4 °F - 48.2 °F 77% 30.11 in 5.0 mi Calm Calm - N/A   Haze
2:53 AM 54.0 °F - 48.9 °F 83% 30.13 in 4.0 mi Calm Calm - N/A   Haze
3:27 AM 51.8 °F - 48.2 °F 88% 30.10 in 1.0 mi South 3.5 mph - N/A   Mist
3:34 AM 53.6 °F - 48.2 °F 82% 30.10 in 0.5 mi South 3.5 mph - N/A Fog Fog
3:43 AM 53.6 °F - 50.0 °F 88% 30.10 in 0.2 mi South 4.6 mph - N/A Fog Fog
3:53 AM 53.1 °F - 50.0 °F 89% 30.12 in 0.2 mi South 4.6 mph - N/A Fog Fog
4:02 AM 55.4 °F - 51.8 °F 88% 30.10 in 1.0 mi South 4.6 mph - N/A   Mist
4:13 AM 55.4 °F - 51.8 °F 88% 30.10 in 2.0 mi South 3.5 mph - N/A   Scattered Clouds
4:20 AM 55.4 °F - 53.6 °F 94% 30.10 in 1.0 mi South 3.5 mph - N/A   Mist
4:27 AM 55.4 °F - 51.8 °F 88% 30.10 in 0.5 mi South 3.5 mph - N/A Fog Fog
4:39 AM 53.6 °F - 51.8 °F 94% 30.10 in 1.2 mi Calm Calm - N/A   Partly Cloudy
4:48 AM 55.4 °F - 51.8 °F 88% 30.10 in 3.0 mi Calm Calm - N/A   Partly Cloudy
4:53 AM 55.9 °F - 52.0 °F 87% 30.13 in 2.5 mi Calm Calm - N/A   Clear
5:00 AM 53.6 °F - 50.0 °F 88% 30.10 in 1.8 mi Calm Calm - N/A   Partly Cloudy
5:10 AM 53.6 °F - 50.0 °F 88% 30.11 in 3.0 mi Calm Calm - N/A   Scattered Clouds
5:39 AM 53.6 °F - 48.2 °F 82% 30.11 in 3.0 mi Calm Calm - N/A   Mostly Cloudy
5:53 AM 52.0 °F - 48.0 °F 86% 30.13 in 3.0 mi South 3.5 mph - N/A   Overcast
6:04 AM 53.6 °F - 48.2 °F 82% 30.11 in 1.8 mi South 3.5 mph - N/A   Overcast
6:16 AM 51.8 °F - 48.2 °F 88% 30.11 in 0.5 mi Calm Calm - N/A Fog Fog
6:33 AM 51.8 °F - 48.2 °F 88% 30.12 in 2.0 mi South 3.5 mph - N/A   Mostly Cloudy
6:53 AM 52.0 °F - 48.0 °F 86% 30.15 in 0.8 mi Calm Calm - N/A   Mist
7:03 AM 51.8 °F - 48.2 °F 88% 30.12 in 0.2 mi Calm Calm - N/A Fog Fog
7:11 AM 51.8 °F - 48.2 °F 88% 30.12 in 0.5 mi Calm Calm - N/A Fog Fog
7:19 AM 51.8 °F - 48.2 °F 88% 30.13 in 0.2 mi Calm Calm - N/A Fog Fog
7:31 AM 51.8 °F - 48.2 °F 88% 30.13 in 1.0 mi Calm Calm - N/A   Overcast
7:44 AM 53.6 °F - 48.2 °F 82% 30.14 in 2.5 mi Calm Calm - N/A   Haze
7:53 AM 54.0 °F - 48.9 °F 83% 30.16 in 6.0 mi Calm Calm - N/A   Haze
8:06 AM 55.4 °F - 51.8 °F 88% 30.14 in 5.0 mi Calm Calm - N/A   Haze
8:09 AM 55.4 °F - 51.8 °F 88% 30.14 in 1.5 mi Calm Calm - N/A   Mostly Cloudy
8:14 AM 57.2 °F - 53.6 °F 88% 30.14 in 0.2 mi SSE 3.5 mph - N/A Fog Fog
8:28 AM 59.0 °F - 55.4 °F 88% 30.14 in 0.2 mi South 5.8 mph - N/A Fog Fog
8:53 AM 60.1 °F - 57.0 °F 90% 30.17 in 0.2 mi South 4.6 mph - N/A Fog Fog
9:11 AM 62.6 °F - 57.2 °F 82% 30.16 in 0.8 mi South 3.5 mph - N/A   Overcast
9:21 AM 62.6 °F - 57.2 °F 82% 30.16 in 1.8 mi South 4.6 mph - N/A   Overcast
9:28 AM 62.6 °F - 59.0 °F 88% 30.16 in 3.0 mi South 3.5 mph - N/A   Overcast
9:35 AM 64.4 °F - 59.0 °F 83% 30.16 in 5.0 mi SE 3.5 mph - N/A   Haze
9:42 AM 64.4 °F - 60.8 °F 88% 30.16 in 7.0 mi South 4.6 mph - N/A   Mostly Cloudy
9:53 AM 66.0 °F - 60.1 °F 81% 30.18 in 10.0 mi South 3.5 mph - N/A   Scattered Clouds
10:53 AM 75.0 °F - 61.0 °F 62% 30.18 in 10.0 mi SE 6.9 mph - N/A   Clear
11:53 AM 79.0 °F - 60.1 °F 52% 30.16 in 10.0 mi SSW 9.2 mph - N/A   Clear
12:53 PM 82.9 °F 82.8 °F 59.0 °F 44% 30.14 in 10.0 mi SSW 10.4 mph 18.4 mph N/A   Partly Cloudy
1:53 PM 82.9 °F 82.1 °F 55.9 °F 39% 30.10 in 10.0 mi SSW 11.5 mph 20.7 mph N/A   Clear
2:53 PM 84.0 °F 82.9 °F 55.0 °F 37% 30.08 in 10.0 mi South 13.8 mph 23.0 mph N/A   Partly Cloudy
3:53 PM 84.9 °F 83.2 °F 53.1 °F 33% 30.06 in 10.0 mi SSW 9.2 mph 18.4 mph N/A   Partly Cloudy
4:53 PM 82.9 °F - 52.0 °F 34% 30.07 in 10.0 mi SSW 8.1 mph - N/A   Partly Cloudy
5:53 PM 79.0 °F - 54.0 °F 42% 30.09 in 10.0 mi SW 4.6 mph - N/A   Partly Cloudy
6:53 PM 73.0 °F - 57.0 °F 57% 30.10 in 10.0 mi Calm Calm - N/A   Partly Cloudy
7:53 PM 68.0 °F - 59.0 °F 73% 30.11 in 10.0 mi Calm Calm - N/A   Clear
8:53 PM 66.0 °F - 59.0 °F 78% 30.09 in 10.0 mi Calm Calm - N/A   Clear
9:53 PM 63.0 °F - 55.9 °F 78% 30.08 in 10.0 mi Calm Calm - N/A   Clear
10:53 PM 62.1 °F - 57.9 °F 86% 30.08 in 10.0 mi Calm Calm - N/A   Clear
11:53 PM 62.1 °F - 57.9 °F 86% 30.06 in 10.0 mi South 4.6 mph - N/A   Clear